Skip Page Navigation
NASA JPL Caltech
NASA Logo - Jet Propulsion Laboratory + View the NASA Portal
+ Center for Near-Earth Object Studies
JPL Home Earth Solar System Stars & Galaxies Technology
JPL Solar System Dynamics
BODIES ORBITS EPHEMERIDES TOOLS PHYSICAL DATA DISCOVERY FAQ SITE MAP
IMPORTANT: The SSD Announcement email list is now available. Major changes are coming in the near future, including possible hostname and/or URL changes. To be notified of such changes, subscribe to this email list.

Please visit this page for more details.


JPL Small-Body Database Browser
Search: [ help ]  
7896 Svejk (1995 EC)
Classification: Main-belt Asteroid          SPK-ID: 2007896
Ephemeris | Orbit Diagram | Orbital Elements | Mission Design | Physical Parameters | Discovery Circumstances | Close-Approach Data ]

[ hide orbit diagram ]

For accurate long-term ephemerides, please instead use our Horizons system.This orbit viewer was implemented using two-body methods, and hence should not be used for determining accurate long-term trajectories (over several years or decades) or planetary encounter circumstances.


[ revert to old Java-based viewer ]

Orbital Elements at Epoch 2458600.5 (2019-Apr-27.0) TDB
Reference: JPL 32 (heliocentric ecliptic J2000)
 Element Value Uncertainty (1-sigma)   Units 
e .1388209867978114 3.3338e-08  
a 3.137119664043821 1.6167e-08 au
q 2.701621616578439 1.026e-07 au
i 1.907163438099576 3.4303e-06 deg
node 52.33522427574065 0.00012466 deg
peri 140.1745961597418 0.00012542 deg
M 93.4559483309379 1.4628e-05 deg
tp 2458073.634814007543
(2017-Nov-16.13481401)
8.1545e-05 TDB
period 2029.528032668789
5.56
1.5689e-05
4.295e-08
d
yr
n .1773811419232319 1.3712e-09 deg/d
Q 3.572617711509203 1.8412e-08 au
  Orbit Determination Parameters
   # obs. used (total)      2316  
   data-arc span      15657 days (42.87 yr)  
   first obs. used      1976-12-18  
   last obs. used      2019-10-31  
   planetary ephem.      DE431  
   SB-pert. ephem.      SB431-N16  
   condition code      0  
   norm. resid. RMS      .49214  
   source      ORB  
   producer      Otto Matic  
   solution date      2019-Nov-07 03:05:49  

Additional Information
 Earth MOID = 1.70197 au 
 Jupiter MOID = 1.38333 au 
 T_jup = 3.196 
[ show covariance matrix ]

Ephemeris | Orbit Diagram | Orbital Elements | Mission Design | Physical Parameters | Discovery Circumstances | Close-Approach Data ]

Physical Parameter Table
Parameter Symbol Value Units Sigma Reference Notes
absolute magnitude H 12.6   n/a MPO448992  
diameter diameter 15.305 km 0.272 urn:nasa:pds:neowise_diameters_albedos::2.0[mainbelt] (http://adsabs.harvard.edu/abs/2011ApJ...741...68M)  
rotation period rot_per 16.20582 h n/a LCDB (Rev. 2019-January); Warner et al., 2009 sidereal period (not synodic); Result based on less than full coverage, so that the period may be wrong by 30 percent or so.
Published Reference List:
[Durech, J.; Hanus, J.; Oszkiewsicz, D.; Vanco, R. (2016) Astron. Astrophys. 587, A48.]
geometric albedo albedo 0.083   0.008 urn:nasa:pds:neowise_diameters_albedos::2.0[mainbelt] (http://adsabs.harvard.edu/abs/2011ApJ...741...68M)  

7896 Švejk           Discovered 1995 Mar. 1 by Z. Moravec at Klet.
Named for a literary character created by Jaroslav Hašek, Czech writer and humorist (1883-1923). His "good soldier" Josef Švejk is devoted to the disintegrating Austrian-Hungarian monarchy regime, but by his simplicity (or perhaps his ingenuity) he helps to reveal its flaws.
NOTE: some special characters may not display properly (any characters within {} are an attempt to place the proper accent above a character)
Reference: 19990402/MPCPages.arcLast Updated: 2010-06-11

[ show close-approach data ]
Alternate Designations
 1995 EC = 1976 YJ4 
Ephemeris | Orbit Diagram | Orbital Elements | Mission Design | Physical Parameters | Discovery Circumstances | Close-Approach Data ]
ABOUT SSD CREDITS/AWARDS PRIVACY/COPYRIGHT GLOSSARY LINKS
FirstGov
(server date/time)  
NASA Home Page
Site Manager:   Ryan S. Park
Webmaster  Alan B. Chamberlin